Погода в Жаслыке

Погода в Жаслыке : погода сейчас, прогноз погоды и архив. Всё, что Вы хотите узнать о погоде в Жаслыке!

Хотите узнать прогноз погоды в Жаслыке? Тогда Вам сюда: Погода в Жаслыке

Поиск расширенной информации на нашем сайте:

Другие новости

Новости СМИ2

Главная страница сайта

Новости сайта

03.07.2017

Напоминаем, что на нашем специализированном сайте Метеоцентр.Азия вы можете получить высокодетализированные автоматические прогнозы погоды по пунктам России, СНГ и мира в авиационном формате (включающие направление и скорость ветра, видимость, явления погоды, количество и форму облачности, нижнюю и верхнюю границу облачности).


Погода в Жаслыке - сегодня

Время (UTC), дата Ветер
(°,м/с) 
Видим.   Явления Облачность Т
(°С)
Тd
(°С)
f(%) Тe
(°С)
Pmin
(гПа)
dP
(гПа)
Po
(мм)
O2
(г/м3)
Тmin Tmax R s Состояние
почвы
18 18.09.17 060 (СВ) 20000 м    ясно 
+20.9 +3.8 32 +21  1019.6  0.8  753  281    +33.1       
21 18.09.17 050 (СВ) 20000 м    ясно 
+17.7 +3.4 38 +19  1019.8  0.1  753  284           
00 19.09.17 060 (СВ) 20000 м    ясно 
+15.4 +2.9 43 +17  1020.1  0.3  753  287           
03 19.09.17 050 (СВ) 20000 м    ясно 
+16.4 +7 54 +18  1021.1  754  285           
06 19.09.17 090 (В) 20000 м    ясно 
+29 +3.7 20 +29  1021.9  755  274  +14.2         
09 19.09.17 070 (В) 20000 м    ясно 
+30.7 +1.4 15 +31  1019.5  -0.4  754  273           
12 19.09.17 060 (СВ) 20000 м    ясно 
+30.5 +1.8 16 +31  1020.7  -0.4  754  273           
15 19.09.17 050 (СВ) 20000 м    ясно 
+24.7 +1 21 +25  1021.3  -0.8  754  279    +31.6       
18 19.09.17 050 (СВ) 20000 м    ясно 
+19.8 +1.3 29 +21  1021.6  0.6  754  283    +31.6       
21 19.09.17 050 (СВ) 20000 м    ясно 
+16 +0.6 35 +17  1021.3  0.2  754  287           
00 20.09.17 060 (СВ) 20000 м    ясно 
+15.3 +0.1 35 +17  1021  754  288           
06 20.09.17 080 (В) 20000 м    ясно 
+26.4 -2.9 14 +26  1021.9  0.3  755  278  +14.4         
09 20.09.17 070 (В) 10  20000 м    ясно 
+30.1 -4.2 10 +30  1020.6  -1.2  754  274           
12 20.09.17 080 (В) 20000 м    ясно 
+30.2 -0.7 14 +30  1019.6  -1.1  753  273           
15 20.09.17 040 (СВ) 20000 м    ясно 
+23.4 +1.3 23 +23  1019.8  0.2  753  279    +31.4       
18 20.09.17 040 (СВ) 20000 м    ясно 
+18.4 +3.3 37 +19  1019.9  0.1  753  284    +31.4       
21 20.09.17 030 (СВ) 20000 м    ясно 
+15.3 +4 47 +15  1019.7  753  287           
00 21.09.17 030 (СВ) 20000 м    ясно 
+13.3 +5.4 59 +13  1019.3  -0.5  753  288           
06 21.09.17 070 (В) 20000 м    ясно 
+26.5 +0.3 18 +27  1018.6  -0.4  752  276  +12.1         
09 21.09.17 060 (СВ) 20000 м    ясно 
+29.1 -1.5 14 +29  1017  -0.7  752  274           
12 21.09.17 050 (СВ) 20000 м    ясно 
+29.5 -0.6 14 +30  1016.8  -1.1  751  273           
15 21.09.17 040 (СВ) 20000 м    ясно 
+22.6 -1.1 21 +23  1016.7  -0.1  751  279    +30.6       
18 21.09.17 010 (С) 20000 м    ясно 
+18.7 -0.2 28 +19  1016.7  751  283    +30.6       
21 21.09.17 010 (С) 20000 м    ясно 
+15.5 +1.7 39 +16  1016.3  -0.4  750  286           
00 22.09.17 010 (С) 20000 м    ясно 
+13.9 +2.6 46 +14  1015.9  -0.4  750  287           
Время (UTC), дата Ветер
(°,м/с) 
Видим.   Явления Облачность Т
(°С)
Тd
(°С)
f(%) Тe
(°С)
Pmin
(гПа)
dP
(гПа)
Po
(мм)
O2
(г/м3)
Тmin Tmax R s Состояние
почвы

Для получения пояснительной информации подведите курсор к названию столбца.

ПОГОДА в Жаслыке - архив

Всё, что Вы хотите узнать о погоде в Жаслыке - удобно и подробно!

Выберите нужную дату (начиная с 1 января 2015* года) и нажмите кнопку "Найти".
Будут отображены архивные сводки погоды по пункту Жаслык, начиная с указанной даты.


Отображать данные в формате CSV (для использования в таблицах Excel)


Внимание! Наш архив погоды предназначен исключительно для личного некоммерческого использования в познавательных целях. Если Вам необходимы официальные справки о состоянии погоды (для производственных, юридических, коммерческих и т.п. целей), обращайтесь в органы Росгидромета.

*Примечание: данная дата относится к архиву по метеостанциям СССР (Россия, СНГ, Балтия).
Архив по метеостанциям Зарубежной Европы и Азии (кроме Китая) хранится 10 дней, по другим регионам земного шара (Китай, Африка, Америка, Австралия, Океания) - 1 день.

Жаслык - район местоположения метеостанции


Название, широта, долгота, высота метеостанции:
Жаслык 43.9°ш. 57.5°д. 128 м над ур. моря [Узбекистан]

Дополнительная информация

В oтличие oт бoльшинства пoгoдных сайтoв мы публикуем пoдрoбную метеoинфoрмацию в детальнoм прoфессиoнальнoм фoрмате.

Характеристики температуры и влажнoсти вoздуха измеряются на высoте 2 м в тени вдали oт зданий и деревьев.
Скoрoсть ветра измеряется на высoте 10 м (на урoвне рoста челoвека скoрoсть ветра ниже в 1.5-2 раза). Если метеoстанция нахoдится в гoрoде или в лесу, тo скoрoсть ветра занижена на 2-4 м/с пo сравнению с oткрытым местoм. Скoрoсть ветра над акватoриями крупных рек и oзёр, а также на вершинах хoлмoв на 2-5 м/с выше, чем в oбычных услoвиях.
Атмoсфернoе давление в разных тoчках местнoсти мoжет значительнo oтличаться oт давления на метеoстанции, в зависимoсти oт услoвий рельефа (при пoдъёме на 10 м давление пoнижается примернo на 1 мм рт.ст.).